RH
37 35 34 36 37 37 38 37 37 38 40 42 44 46 48 50 50 48 49 51 52 53 53 54 53 54 57 57 55 55 56 56 52 49 49 48 43 43 45 45 46 47 46 44 42 44 47 47 47 44 41 41 41 41 42 44 50 56 55 52 53 54 53 52 51 47 43 42 40 37 36 35 35 35 34 34 36 36 35 33 32 31 30 29 26
37 35 35 38 42 42 40 38 36 37 39 39 40 41 44 48 49 48 47 48 48 49 50 52 51 51 54 57 59 59 59 61 57 52 52 52 47 44 45 45 45 45 45 45 44 46 48 46 45 42 39 40 40 43 48 51 53 56 57 54 52 52 52 51 50 47 43 39 37 35 34 34 33 34 34 35 36 35 33 32 32 31 29 27 26
40 37 36 39 44 45 43 41 41 41 41 40 39 38 40 45 48 48 46 46 46 46 46 48 50 51 51 52 56 56 58 61 60 55 53 52 50 49 50 50 48 48 48 46 44 45 47 47 46 43 42 45 47 50 57 58 55 53 53 53 55 54 52 50 49 49 45 41 38 36 36 35 34 34 35 35 34 32 31 31 31 30 28 26 26
43 42 42 41 42 43 44 44 46 46 43 42 40 37 38 42 44 45 44 44 44 45 45 45 47 49 49 49 51 52 54 56 56 55 54 53 51 51 52 51 47 47 47 46 45 47 48 50 53 52 51 53 53 53 56 55 52 51 54 58 61 58 54 51 49 48 45 42 40 38 36 34 32 31 31 30 29 28 28 28 29 29 29 29 29
46 46 46 45 43 42 43 45 47 47 45 44 44 42 41 41 41 43 44 44 44 44 46 46 46 48 49 49 48 48 50 50 51 52 52 52 54 54 54 53 50 47 46 43 43 44 46 51 55 57 55 55 54 53 53 51 51 55 58 60 58 54 50 47 45 44 42 40 38 34 30 29 26 24 25 25 26 26 28 29 30 31 32 33 33
52 54 51 46 44 43 43 45 46 47 46 44 45 46 45 43 41 41 42 42 43 43 44 45 44 45 47 48 47 46 46 46 47 48 47 49 53 54 55 56 56 54 51 47 44 42 42 44 45 46 48 49 50 51 52 51 51 52 53 52 52 49 46 44 40 38 36 34 32 28 25 24 23 24 26 27 27 28 29 30 31 33 33 34 33
57 64 60 50 47 45 43 43 43 44 44 43 43 44 44 43 42 41 41 41 41 41 42 44 44 43 44 44 45 46 46 46 45 45 45 46 48 50 52 55 59 59 58 56 54 50 47 48 51 53 52 49 47 48 51 53 51 49 48 47 46 44 41 39 35 31 29 28 26 25 24 23 25 28 29 29 30 31 31 31 34 35 35 34 34
58 68 66 56 52 49 46 47 46 45 44 41 41 40 39 39 38 38 38 40 41 42 43 44 44 45 45 44 42 43 45 47 49 49 47 46 47 48 49 52 55 58 60 60 60 59 58 57 60 64 65 62 58 55 57 59 55 48 45 42 39 37 36 33 30 27 26 26 25 25 25 27 30 32 31 30 31 32 33 35 38 38 36 35 36
61 69 68 62 60 56 52 51 50 49 48 44 42 42 40 38 36 34 34 34 37 40 43 44 45 46 46 45 44 44 44 46 51 56 54 49 47 47 49 52 53 55 58 60 61 66 68 66 65 67 68 66 62 57 57 56 50 43 39 36 35 34 32 29 27 26 26 27 27 27 28 29 32 35 34 33 33 33 35 37 39 39 37 36 37
67 71 71 70 71 69 63 59 56 54 51 47 45 46 44 41 38 37 35 34 33 35 38 41 44 47 48 49 50 52 51 47 47 54 56 51 48 48 50 54 54 54 56 56 58 63 67 67 68 68 67 64 61 58 57 55 49 42 38 37 35 33 30 28 27 27 26 27 28 29 29 30 33 35 36 37 37 38 39 39 40 40 38 36 37
68 68 71 71 72 73 71 69 68 67 64 59 55 52 48 44 42 40 40 40 39 38 40 42 45 48 51 53 55 58 61 57 51 54 59 55 49 48 50 52 53 55 56 54 53 60 65 65 62 61 62 64 64 64 66 65 59 51 47 44 40 36 33 30 29 29 29 30 32 35 36 37 37 36 38 40 41 42 43 44 43 41 38 37 38
67 66 68 68 69 72 74 72 71 71 71 69 66 61 56 51 49 48 48 50 51 53 54 54 54 55 56 57 57 59 63 64 60 61 64 63 55 50 49 50 50 51 52 49 49 56 64 65 61 59 60 61 63 65 68 68 65 61 57 52 47 44 42 39 36 34 35 35 38 42 44 46 45 43 43 43 42 45 47 47 44 41 42 43 42
76 76 76 74 74 74 75 74 73 73 72 70 68 67 67 64 62 62 63 64 66 69 70 70 70 70 68 65 63 63 64 66 66 67 70 71 67 59 53 49 48 45 44 44 45 49 57 62 65 66 64 61 62 64 65 66 69 68 62 54 50 49 49 49 46 43 42 40 41 43 47 51 52 51 51 49 47 48 48 46 45 47 49 48 46
80 82 83 82 78 75 74 74 73 73 74 73 70 70 71 70 68 68 69 70 74 77 79 80 80 80 79 77 74 72 71 70 68 69 72 75 74 70 60 51 47 44 43 42 41 42 47 52 57 60 60 62 65 65 64 67 72 71 65 57 51 49 50 51 50 49 47 44 44 43 45 50 53 55 56 55 50 45 43 45 49 54 55 52 50
80 82 83 82 78 75 75 75 74 73 74 75 74 73 72 71 70 69 70 73 77 80 82 83 83 83 84 85 82 79 77 75 72 70 71 75 77 75 69 59 52 48 46 44 41 39 39 41 43 45 48 53 58 61 66 71 72 71 69 63 54 50 50 49 48 47 45 45 45 43 43 46 51 53 53 51 47 45 45 48 53 57 56 54 53
78 79 80 79 78 77 77 78 79 79 77 76 77 76 76 76 74 73 74 76 78 80 81 83 83 83 84 86 87 84 82 80 77 74 74 77 78 78 75 68 61 54 49 48 46 42 37 36 38 39 42 46 49 55 63 69 68 67 67 66 61 55 50 47 45 45 45 47 49 50 52 53 52 47 43 41 44 49 50 50 53 57 56 53 52
74 75 76 76 78 80 80 80 81 83 82 81 80 80 80 80 79 78 78 78 79 80 82 83 83 83 85 86 86 88 88 85 80 77 77 78 78 80 81 76 71 64 55 51 49 46 40 38 38 40 42 44 46 50 56 61 64 64 62 61 59 55 51 51 51 51 52 55 57 59 60 58 51 44 40 40 45 49 49 49 52 56 55 52 50
72 73 74 75 77 80 81 81 83 84 86 87 85 84 84 85 84 83 82 82 83 83 84 84 85 86 88 88 87 87 90 89 85 81 80 79 80 83 85 82 77 72 65 56 50 48 44 41 40 42 46 48 51 57 62 65 66 65 61 57 56 57 58 60 62 63 65 66 66 65 59 53 49 47 46 49 54 55 55 55 55 55 51 46 44
70 70 72 73 74 76 78 80 83 85 87 89 89 90 90 89 88 87 86 86 86 85 84 84 85 85 87 88 88 88 88 89 88 87 85 83 83 84 87 86 80 76 72 63 52 50 50 48 45 47 49 52 58 67 72 72 70 68 65 65 66 68 69 71 74 74 74 73 71 68 63 59 59 58 57 62 67 67 64 62 59 56 51 42 40
67 67 67 67 67 69 72 75 78 82 85 86 88 90 91 90 89 88 87 87 85 85 85 85 85 85 86 88 89 90 90 91 90 90 91 91 89 86 86 87 83 78 75 69 59 54 57 57 55 55 56 58 63 69 73 72 71 70 69 71 74 75 76 77 77 75 73 71 68 67 68 69 68 66 65 68 70 67 63 62 62 61 55 46 45
65 66 66 65 64 64 66 68 70 75 79 81 84 88 89 88 88 87 87 86 85 85 85 84 83 84 85 87 90 91 92 92 92 92 93 94 93 89 87 87 86 82 78 74 68 61 62 65 65 65 65 64 65 67 68 69 70 72 74 75 77 76 76 75 73 71 71 70 69 69 69 66 62 63 63 63 63 62 61 62 62 59 54 51 54
60 63 64 65 64 64 65 66 65 68 72 75 80 87 89 87 85 83 83 84 84 86 86 84 82 81 81 86 91 91 88 88 90 93 92 91 90 89 88 88 88 84 80 78 75 70 69 73 74 74 74 74 73 72 72 73 75 78 78 76 75 74 74 73 71 70 70 69 68 65 58 51 51 56 57 56 56 57 58 57 55 51 49 51 56
54 57 59 61 62 62 63 63 62 63 64 65 69 76 80 80 78 78 81 82 82 84 83 81 79 79 80 82 86 86 84 85 88 90 88 88 89 88 87 87 86 85 82 80 79 79 79 80 80 79 81 82 81 79 79 81 83 81 78 75 73 71 69 67 65 64 62 59 56 49 42 42 49 56 57 57 57 57 56 53 50 47 46 46 46
50 52 53 54 54 55 56 56 56 58 59 58 60 63 66 67 69 74 79 81 82 83 81 78 79 80 79 78 78 79 79 81 86 88 85 85 87 86 84 84 85 85 84 83 84 86 86 84 83 82 82 82 81 79 79 78 78 76 72 69 66 63 62 59 57 53 50 46 44 39 38 43 50 52 53 55 54 52 49 48 47 46 44 41 36
49 49 50 50 49 50 51 52 55 59 61 61 61 62 64 64 65 69 75 81 84 84 80 78 80 80 79 78 78 76 74 75 82 86 84 83 82 81 82 84 85 85 84 82 85 87 85 83 83 85 84 82 79 75 70 66 64 62 60 59 58 57 55 51 47 43 40 39 40 40 41 44 46 46 45 43 39 35 35 37 39 38 35 32 28
47 48 50 50 49 48 49 50 53 59 63 64 64 66 67 68 67 68 71 76 79 79 77 77 79 81 82 82 81 79 76 76 81 84 83 81 79 78 79 82 84 83 81 82 86 86 84 85 86 83 78 72 65 62 58 56 56 55 54 54 52 48 43 38 35 35 35 36 38 39 41 42 43 41 39 34 28 25 28 31 32 30 28 26 22
48 47 49 51 53 54 55 54 53 54 56 58 60 63 66 68 70 72 72 71 71 70 70 71 74 77 80 80 80 78 76 75 78 81 82 80 76 74 73 75 77 78 78 82 85 83 79 79 77 70 63 59 56 55 54 53 53 51 48 46 42 37 34 32 33 34 35 36 37 39 42 44 42 39 37 32 28 27 30 32 32 30 28 25 22
54 52 49 51 56 60 61 60 57 53 51 50 49 51 54 56 60 63 63 62 62 63 64 67 70 73 74 75 74 71 68 68 72 76 77 77 74 70 68 68 69 70 71 74 74 71 65 62 58 56 55 54 53 51 48 46 45 44 42 41 39 37 37 38 39 40 40 40 40 41 43 43 41 40 37 33 30 31 34 34 34 32 30 28 26
58 56 52 52 57 60 60 61 60 57 56 54 51 48 48 47 49 53 54 54 54 56 58 62 66 69 71 70 67 64 63 63 64 64 67 70 71 68 67 66 66 66 65 63 61 58 54 48 46 48 49 46 44 42 41 41 42 43 44 45 45 44 44 44 45 45 45 44 42 43 43 42 41 40 37 32 31 34 35 35 34 32 31 31 29
56 56 54 53 55 56 57 59 60 58 58 58 58 56 55 53 51 53 54 51 49 49 51 56 59 61 61 60 57 56 57 58 58 57 60 65 67 65 64 63 60 58 57 54 51 49 45 40 40 44 45 43 42 43 43 44 45 47 48 48 47 46 46 45 44 44 44 45 44 43 43 42 40 39 35 32 33 35 36 35 34 33 32 32 29
55 55 54 53 51 49 49 50 52 52 52 53 53 54 56 57 57 58 57 54 49 45 44 47 49 48 47 45 44 42 42 44 46 49 53 58 61 61 60 56 52 49 48 46 45 42 39 39 41 44 44 45 47 47 47 47 48 47 47 46 45 45 45 45 45 44 42 42 41 39 38 38 37 36 35 35 36 38 37 36 34 33 32 30 28
56 56 54 52 48 45 44 44 43 44 45 45 43 43 45 51 57 58 56 56 54 52 48 46 43 41 37 35 35 34 33 34 37 40 43 47 51 53 51 47 45 45 44 42 40 39 40 44 47 47 48 49 50 49 49 49 48 47 47 46 46 46 46 45 44 42 39 37 35 35 36 37 37 38 39 40 40 39 37 36 35 33 31 29 29
53 54 53 51 48 46 46 46 45 45 45 43 42 44 46 52 57 56 50 49 51 52 53 53 52 50 47 43 39 36 34 33 34 36 38 40 43 44 43 41 42 45 45 43 43 45 48 50 52 53 53 53 52 52 52 52 51 51 50 49 49 49 47 46 43 41 39 37 36 37 39 41 42 42 41 40 38 36 35 34 33 32 30 30 31
49 51 50 48 48 47 47 48 48 48 47 44 44 49 54 58 60 60 56 53 52 50 50 53 55 54 53 50 47 44 41 39 38 38 40 41 42 43 47 50 53 54 53 52 53 55 56 56 57 58 58 56 56 56 56 56 55 54 53 53 53 53 51 49 46 43 41 40 39 39 41 42 41 40 39 38 37 36 35 34 33 33 32 32 32
41 44 44 43 44 45 46 47 48 48 47 46 46 49 53 57 61 63 64 63 59 56 56 58 58 55 50 48 48 48 47 46 46 46 46 45 44 48 55 61 64 63 63 64 63 62 61 60 60 59 58 58 58 57 57 58 58 57 56 55 54 52 50 48 45 42 40 39 39 39 39 39 39 38 38 38 38 37 36 35 34 33 33 33 32
32 34 34 34 36 38 40 41 43 44 45 46 47 48 51 54 58 63 66 67 65 64 64 63 61 58 55 54 54 52 48 46 46 47 47 46 46 51 57 61 61 62 63 64 65 65 65 64 62 60 58 57 56 55 55 55 54 53 53 52 51 49 48 46 44 42 41 40 39 39 40 40 40 40 39 39 38 37 36 36 35 34 33 33 32
36 36 35 33 32 34 35 35 37 38 40 41 43 45 47 50 52 55 59 63 65 67 67 66 63 61 61 63 62 58 52 48 47 48 48 46 46 50 54 56 57 58 59 59 59 60 60 60 59 59 58 56 55 54 54 53 51 50 49 49 48 47 46 45 45 45 44 43 43 43 43 43 43 42 42 41 40 38 37 37 36 35 35 34 33
42 42 42 40 38 38 37 35 35 36 36 37 39 41 44 48 51 51 51 53 56 58 60 62 63 64 65 66 65 62 58 54 52 52 50 48 47 49 51 52 53 54 55 56 56 56 55 55 56 56 55 54 54 53 52 51 49 48 48 47 47 46 45 44 44 45 45 45 45 45 45 44 44 43 42 41 40 39 38 38 37 36 35 34 33
39 40 41 42 41 41 41 40 40 39 38 37 37 37 38 41 44 45 46 48 50 52 53 55 57 60 64 65 65 65 63 60 58 56 53 49 50 53 53 52 52 51 50 51 52 52 52 52 53 53 53 52 52 52 50 49 49 48 48 47 46 45 44 43 43 44 44 43 44 44 43 43 43 42 42 41 40 40 39 38 36 35 34 33 32
40 41 42 41 41 40 40 39 40 39 38 38 39 39 37 37 37 37 38 42 46 48 49 50 52 54 56 58 60 61 62 62 61 59 54 50 53 57 57 55 55 53 51 50 50 49 49 49 49 48 48 47 47 47 46 46 46 45 45 45 45 44 44 44 44 44 43 42 42 41 41 40 40 40 40 40 39 38 38 37 36 35 35 34 33
46 44 42 42 41 40 39 39 41 41 41 40 39 38 38 37 36 34 33 35 39 42 43 45 48 50 51 53 55 56 56 55 53 52 50 52 56 59 57 56 55 53 52 51 51 51 51 51 50 50 49 48 47 46 45 45 44 44 44 44 44 45 44 44 44 44 44 44 43 42 41 41 40 39 39 39 38 37 36 36 34 33 32 31 30
48 44 44 45 45 44 43 44 44 43 42 42 42 40 39 37 35 35 36 37 38 40 40 40 42 44 44 46 49 50 49 49 49 48 50 53 55 55 53 52 52 51 51 50 50 50 51 51 51 51 50 50 49 49 48 47 46 45 44 44 43 43 43 43 43 44 43 43 43 43 42 41 40 39 37 36 35 33 32 30 28 28 27 26 26
55 52 54 56 55 55 54 53 49 46 47 50 50 47 44 41 39 39 41 42 41 42 41 39 40 41 42 42 43 45 46 48 50 50 51 52 53 52 51 51 50 50 50 51 51 51 51 52 52 52 51 51 50 50 49 48 47 46 45 44 44 43 43 43 42 41 41 40 40 39 38 37 36 35 34 32 30 29 28 27 27 27 28 28 27
65 64 66 66 64 66 68 66 63 61 58 58 56 52 48 46 44 42 43 43 43 44 44 44 43 43 43 43 43 44 45 46 47 48 49 50 51 51 51 51 51 51 51 52 53 53 54 55 55 55 55 53 53 53 52 50 48 47 47 46 46 46 46 45 44 42 41 40 39 37 36 36 34 32 30 29 28 27 26 26 27 27 27 27 27
61 62 63 63 66 76 82 81 80 79 72 64 60 57 53 50 49 47 46 46 45 46 47 48 48 47 47 46 46 45 44 44 45 46 47 48 48 49 49 49 50 50 51 51 52 53 54 55 55 55 54 54 55 57 57 54 52 52 52 52 51 51 50 48 46 45 44 43 42 40 38 36 33 30 28 28 27 27 27 27 28 28 28 29 29
54 58 60 59 62 72 81 84 84 84 79 74 69 65 59 55 54 52 50 48 46 46 48 49 49 49 50 51 50 49 47 47 47 48 48 48 49 49 49 48 48 48 48 49 50 51 51 51 50 50 51 51 53 56 56 54 53 54 55 55 55 54 52 50 49 47 45 43 41 38 36 33 30 29 29 28 28 29 29 30 31 31 32 32 32
53 60 71 74 69 66 69 71 69 66 66 69 71 69 66 63 62 60 57 52 48 46 46 46 47 49 52 53 54 53 53 53 53 53 53 53 52 52 52 51 50 49 49 49 49 49 48 47 46 47 49 50 50 50 50 49 49 50 51 50 50 48 47 45 44 41 39 36 34 32 30 29 29 29 29 30 31 31 32 33 34 34 34 33 32
45 51 65 82 89 87 83 80 73 67 64 66 65 63 62 60 57 55 54 52 49 47 46 46 46 48 50 52 52 52 51 51 51 52 54 56 56 56 56 54 53 52 52 51 51 50 50 49 49 49 50 49 48 47 47 46 45 45 45 43 42 40 38 37 35 33 32 31 29 28 28 29 30 31 31 32 33 33 34 34 34 34 33 33 32
42 42 47 61 77 86 90 91 90 86 82 77 72 68 66 62 55 52 50 50 49 49 48 47 47 48 49 49 48 48 47 47 46 47 50 53 56 56 56 55 54 54 53 53 53 53 53 52 52 52 52 51 50 49 48 47 46 45 43 41 39 37 35 34 33 32 30 30 29 30 31 32 33 33 34 34 35 35 35 35 35 35 35 35 34
44 45 45 48 55 65 74 82 89 91 90 85 81 79 75 68 61 56 52 48 46 46 47 47 47 46 44 43 43 43 44 45 45 46 48 51 52 53 53 53 53 53 54 54 54 53 53 53 53 54 53 52 50 49 49 48 47 46 44 42 40 38 36 36 35 34 33 34 35 36 36 37 36 36 36 36 36 36 36 37 38 39 39 39 39
47 47 49 49 51 53 57 63 71 80 86 88 89 87 82 75 66 59 52 47 46 45 44 43 42 41 40 39 40 41 43 46 48 50 52 53 53 54 55 55 55 55 55 56 55 53 52 51 52 51 50 49 49 49 50 49 49 47 45 42 40 38 37 37 36 36 37 38 39 40 40 40 39 38 38 38 39 39 40 42 43 43 42 43 43